Theta_e
315 315 314 313 313 313 314 315 316 316 319 321 323 325 326 325 320 313 306 311 314 320 317 307 305 303 306 303 305 301 288 285 288 290 291 295 294 298 299 295 297 297 297 302 306
314 314 313 314 314 315 317 315 319 320 319 320 321 322 325 323 311 308 317 320 317 317 309 302 299 302 296 299 298 292 286 289 293 293 292 295 295 295 294 293 293 296 299 300 301
314 314 313 314 317 317 319 319 318 316 317 320 321 324 323 319 306 306 325 320 317 316 312 306 302 300 294 295 294 293 290 294 297 298 297 295 293 295 292 291 293 292 295 298 298
314 314 314 316 319 318 318 317 316 316 316 320 321 324 321 312 295 308 321 323 316 314 307 302 300 295 292 291 294 289 296 297 298 297 296 293 294 292 292 293 296 296 298 298 298
315 314 316 318 318 318 316 316 317 319 319 321 319 318 313 302 303 311 318 316 310 307 302 299 295 294 291 292 292 290 293 297 297 296 295 296 292 291 292 295 297 298 299 297 297
316 315 316 317 318 318 318 315 319 319 319 317 316 315 306 295 310 311 310 309 307 305 301 300 297 297 293 292 291 293 295 295 296 296 296 293 292 293 294 296 296 298 297 297 298
316 315 316 316 317 318 319 318 319 319 318 317 315 309 301 299 310 312 311 305 307 305 301 302 302 297 294 291 295 294 290 292 293 295 295 295 289 290 295 295 296 296 298 298 299
316 316 316 316 317 317 318 318 318 319 317 317 314 305 296 309 313 310 307 305 306 306 304 304 303 298 295 294 292 289 288 283 292 295 296 292 282 293 295 294 293 295 296 297 298
315 315 315 315 317 315 315 316 316 317 317 315 306 302 294 310 305 308 309 302 303 304 303 305 301 294 294 287 283 285 279 283 288 295 294 290 285 293 296 294 293 293 294 296 299
313 314 314 315 315 315 316 314 313 310 309 308 306 297 299 297 304 306 307 306 302 300 299 297 294 288 288 285 277 280 280 285 284 291 291 288 288 292 294 294 292 292 296 298 301
313 313 315 315 316 315 308 303 298 296 301 296 296 296 298 303 306 304 306 302 301 297 288 293 285 279 285 287 287 286 284 283 287 293 288 287 287 291 294 294 293 294 295 296 298
312 312 313 313 314 313 305 297 298 300 292 300 300 300 302 303 297 300 305 296 295 288 291 287 281 289 291 290 288 287 283 283 288 293 290 288 289 293 295 293 295 294 293 295 296
312 312 312 312 313 306 301 301 306 306 291 295 298 297 298 301 295 296 300 297 291 288 288 283 287 292 291 288 287 285 283 284 285 290 290 288 283 289 293 295 295 294 294 295 296
312 311 312 313 305 303 298 306 306 305 282 288 292 295 299 300 292 300 301 296 291 286 288 287 291 289 288 288 288 284 290 289 289 283 276 287 273 284 289 292 292 289 290 293 295
312 311 311 311 301 299 302 305 303 299 271 289 293 302 300 294 294 294 301 296 288 289 288 284 286 287 288 289 290 287 291 288 287 283 279 281 274 282 289 290 290 289 292 293 296
311 311 310 305 302 303 305 303 298 278 271 282 293 292 291 292 292 295 294 295 295 289 289 288 292 290 289 291 290 292 289 288 287 286 273 281 277 278 283 288 288 289 292 295 296
311 309 305 304 298 304 303 296 278 273 287 282 286 288 287 286 289 291 290 286 284 279 281 287 287 290 292 287 291 290 284 274 278 278 273 285 277 282 289 291 291 290 292 294 295
310 307 306 304 303 303 298 284 272 281 282 289 289 288 285 288 288 289 287 284 288 286 282 277 275 288 292 289 287 290 288 279 268 271 273 284 276 281 292 293 293 294 294 295 295
308 301 300 302 305 301 289 276 276 282 288 287 289 283 284 288 287 286 285 285 289 289 280 282 280 292 293 294 293 289 286 291 275 277 280 276 281 290 292 292 293 292 294 293 294
296 297 299 304 303 297 285 283 284 291 291 290 282 285 280 283 284 284 285 289 290 292 290 287 280 291 292 294 293 291 292 283 283 273 275 277 277 280 285 288 292 292 293 294 294
297 294 301 304 301 293 281 281 290 295 294 290 288 286 286 286 287 286 286 290 293 292 292 293 287 286 290 289 287 287 286 286 285 281 275 274 277 288 288 290 291 294 296 295 293
296 288 302 303 291 288 283 291 295 293 295 293 292 291 288 288 287 287 287 290 295 295 290 294 289 280 285 294 294 290 287 287 277 282 283 283 281 295 293 293 294 295 296 295 294
291 291 302 301 284 284 289 292 294 293 293 293 292 293 292 289 286 289 290 296 296 294 289 291 283 274 280 285 289 287 290 290 288 287 281 276 279 294 293 293 295 293 293 295 295
292 287 292 294 292 289 287 289 290 294 294 294 293 293 291 289 291 288 289 294 296 295 299 296 286 281 277 282 286 283 287 289 287 279 279 281 283 289 290 292 293 294 295 295 294
292 289 290 285 288 288 289 290 290 289 293 294 291 292 290 285 287 287 289 291 293 298 294 291 281 280 284 287 287 286 286 287 284 286 281 283 284 288 289 290 293 295 295 294 294
293 289 289 288 290 287 289 289 290 291 291 290 289 291 290 287 287 286 288 287 287 290 289 291 282 282 281 286 285 283 286 287 287 287 287 288 287 294 294 293 292 293 294 293 293
295 294 292 289 286 286 287 288 291 292 293 294 292 289 288 291 291 292 292 291 290 288 287 287 282 279 276 283 282 277 282 285 285 287 287 283 289 291 290 291 293 293 294 293 294
Wind_Speed
24 21 13 14 15 13 13 14 18 14 21 17 16 12 19 17 13 3 5 3 3 6 2 3 3 1 4 3 4 3 5 1 4 3 3 3 4 5 2 2 4 3 2 5 9
23 16 17 19 16 17 11 11 14 19 14 12 9 5 20 15 8 12 6 3 3 2 5 4 4 5 4 2 4 4 4 2 2 2 3 4 5 3 5 6 3 3 5 8 6
25 22 18 19 17 15 22 23 20 16 12 14 10 16 22 8 5 5 16 3 4 4 4 3 4 5 4 2 0 2 4 4 3 4 5 3 4 5 0 4 6 0 6 6 3
24 22 19 13 28 27 21 21 18 13 12 15 6 22 15 3 6 5 18 9 5 6 4 5 4 3 4 5 1 5 5 4 4 3 3 2 3 6 4 8 6 7 6 5 8
23 21 24 26 22 24 21 19 17 18 17 23 22 14 4 9 7 11 20 11 5 6 3 4 3 4 6 5 4 3 3 4 6 5 2 2 3 6 9 11 10 9 8 7 7
22 20 23 26 24 23 18 19 23 29 28 26 20 13 3 12 10 14 16 10 3 4 7 5 1 2 6 5 3 3 5 5 5 3 2 2 3 2 6 7 7 8 7 7 8
23 21 22 23 23 25 24 22 23 23 26 26 22 11 20 9 9 13 13 4 5 5 4 4 3 6 4 4 2 2 3 1 4 3 2 2 4 9 12 5 6 8 7 8 9
22 22 21 20 21 24 24 21 21 21 20 23 26 14 7 8 14 12 5 8 9 7 5 6 7 5 5 3 3 2 4 2 1 5 2 2 7 6 1 2 6 8 8 8 10
22 21 21 20 17 26 28 26 21 17 21 20 8 7 7 12 7 12 3 6 5 4 4 4 5 3 3 5 5 3 1 3 2 6 3 4 7 7 7 7 9 8 8 6 6
22 20 18 16 13 14 12 22 27 17 9 9 3 8 4 1 8 8 3 4 3 3 4 5 5 4 4 5 4 1 1 3 2 4 3 4 13 12 10 8 10 7 7 7 8
18 18 17 21 14 11 6 5 5 9 15 13 14 16 2 7 7 5 5 4 1 1 4 3 9 4 4 3 2 1 1 3 2 1 4 6 8 17 9 6 5 5 7 7 8
14 14 15 16 18 15 9 6 4 6 12 16 12 6 2 2 4 14 8 2 3 4 3 7 5 1 3 4 4 4 3 4 2 3 4 8 16 18 15 3 6 6 8 9 10
12 10 10 9 10 7 7 5 3 2 7 6 3 3 4 7 6 9 9 5 5 7 6 6 3 1 3 3 5 3 3 3 3 7 4 10 9 4 3 8 8 8 4 4 7
13 11 12 14 4 2 3 0 2 1 7 10 7 6 3 2 4 5 5 2 6 4 5 6 3 3 2 3 3 3 5 5 5 6 3 6 8 6 2 4 6 5 5 6 7
12 12 10 8 2 3 2 1 4 2 9 9 5 2 5 4 2 7 3 5 6 4 5 2 2 3 4 3 3 2 4 3 2 3 5 5 3 9 2 5 4 7 8 7 8
14 8 10 3 2 2 1 2 3 10 5 7 3 3 2 4 3 2 4 4 1 3 6 3 1 2 1 3 1 4 3 3 2 1 3 6 6 8 4 4 2 3 7 8 8
17 7 3 2 1 1 2 3 8 9 2 5 3 2 4 5 4 5 3 4 3 6 4 3 0 1 2 2 2 1 4 4 3 1 7 3 2 11 5 4 4 5 8 9 8
13 9 2 1 1 2 3 8 13 5 4 3 3 3 3 4 3 4 2 3 3 2 2 4 6 4 3 2 1 2 2 1 3 2 6 3 7 9 4 6 7 7 8 6 6
9 3 2 1 2 2 6 9 6 5 4 3 3 1 2 1 1 1 3 2 3 4 3 3 2 2 2 4 2 1 2 3 2 2 4 5 8 5 4 5 6 8 6 6 4
2 2 3 3 3 4 7 7 4 1 1 1 2 2 2 2 1 2 3 1 3 3 2 2 2 1 1 3 4 2 1 2 2 3 5 6 6 7 6 8 8 7 7 6 3
3 3 3 3 3 6 5 2 4 1 3 2 4 0 3 3 2 2 1 3 2 2 3 2 1 1 3 6 8 3 2 3 1 3 3 5 8 6 7 8 10 8 7 6 4
2 3 1 3 6 3 2 3 2 3 3 2 1 3 3 1 2 3 1 2 4 5 3 3 3 4 9 4 7 5 7 5 4 3 3 2 10 5 7 7 6 7 6 5 6
2 3 2 4 4 2 1 1 1 3 4 3 2 2 3 3 2 0 3 4 6 5 2 3 2 2 5 5 2 4 6 6 3 2 8 4 9 1 3 5 7 8 8 7 7
3 3 6 5 2 7 3 2 2 1 2 2 2 3 2 3 4 2 3 4 7 5 5 3 3 6 6 3 3 4 6 8 7 3 4 11 10 11 8 9 8 9 9 8 8
2 2 3 2 3 3 4 5 3 2 2 3 3 5 3 2 4 4 3 3 2 4 4 4 5 5 7 12 11 13 13 13 13 12 9 2 9 10 7 8 11 13 9 8 8
1 3 2 2 1 1 2 7 7 4 6 4 4 3 4 4 4 4 1 3 6 3 5 3 5 3 7 11 7 10 15 16 18 19 19 21 26 21 18 11 11 11 9 9 9
2 1 4 2 2 4 5 4 6 8 5 7 4 1 3 6 3 4 5 4 6 7 7 6 3 2 7 6 9 9 10 15 9 8 18 18 29 7 11 9 7 7 9 10 10
Wind_Direction
342 348 352 328 307 291 274 238 223 234 225 183 180 169 159 137 122 123 56 303 245 161 352 223 231 335 75 57 31 47 67 21 1 81 128 25 56 358 331 321 340 342 94 182 189
357 7 5 332 317 287 246 193 177 161 158 168 148 207 144 134 125 65 349 7 91 74 344 153 159 101 61 62 9 80 87 107 14 18 88 88 71 344 14 1 309 312 342 20 46
17 21 354 334 314 110 113 106 109 108 132 153 155 165 138 128 113 55 348 339 12 348 288 306 152 98 77 94 151 88 119 147 49 81 38 50 25 328 324 290 226 332 299 320 347
24 7 3 360 57 81 87 93 97 105 127 126 152 143 126 116 91 1 340 324 308 305 275 145 126 100 108 145 98 102 74 81 130 44 40 71 343 321 233 231 258 277 265 301 320
26 21 17 44 67 69 72 79 74 104 115 103 80 68 65 67 37 333 336 312 296 328 359 67 119 137 145 138 88 84 128 100 127 147 214 258 247 244 258 253 268 288 298 292 288
31 39 37 37 47 52 76 80 87 91 87 76 73 72 38 74 327 336 329 308 325 325 35 31 16 117 101 112 84 83 127 144 159 191 228 230 262 341 269 259 252 249 256 266 262
41 41 39 40 51 53 66 79 104 95 89 73 63 76 49 40 333 313 302 20 18 49 66 13 318 78 96 86 350 82 81 125 206 205 180 97 256 233 249 301 240 245 250 256 251
46 36 37 41 54 53 59 73 77 90 103 87 71 64 65 334 311 311 355 41 35 36 54 356 24 75 74 117 61 80 46 102 207 152 206 130 260 258 240 28 317 291 278 270 268
33 41 39 36 52 70 61 56 44 71 95 111 61 77 69 311 311 325 246 100 70 40 36 12 45 91 39 93 39 15 183 179 237 196 150 175 263 241 298 320 294 279 273 308 336
26 27 27 23 11 357 51 78 56 33 40 84 74 78 359 27 289 318 285 136 98 107 34 44 53 70 37 58 171 84 236 196 223 219 227 227 257 275 272 274 271 334 26 31 20
27 22 34 31 13 356 359 51 29 38 41 54 66 91 66 292 272 357 360 342 139 347 94 41 69 90 101 60 80 346 47 23 63 62 275 256 283 282 281 264 82 52 32 24 11
26 18 9 6 23 30 55 66 48 148 62 33 42 67 73 305 357 5 351 71 66 94 90 39 85 109 90 52 56 44 47 352 38 34 325 315 292 277 273 219 139 80 35 15 351
22 17 360 350 339 36 61 58 67 19 72 46 10 45 316 346 25 352 11 353 64 60 69 101 138 14 25 40 38 49 60 34 330 338 347 349 309 354 17 115 93 57 48 8 335
1 358 348 333 42 163 56 260 327 23 76 4 5 2 329 224 45 352 352 50 34 80 84 91 34 22 19 59 61 76 19 24 358 32 282 77 283 300 231 199 90 25 17 342 336
348 342 340 6 247 55 169 220 277 47 65 311 333 260 289 71 200 346 290 26 53 47 73 241 114 24 20 50 30 111 343 272 261 282 35 323 64 269 296 228 302 6 2 318 293
334 333 329 29 46 99 338 333 55 43 32 325 291 295 12 37 29 263 8 53 51 52 54 94 43 50 46 356 56 318 337 299 165 309 347 230 138 276 223 217 343 342 306 294 294
330 327 359 305 265 283 30 57 49 64 282 313 303 9 63 32 18 18 32 30 69 64 12 36 127 119 78 15 247 189 51 355 331 306 227 198 104 246 233 160 183 232 270 276 282
341 314 311 80 341 58 58 48 66 245 188 266 263 290 75 20 357 348 40 32 352 55 97 121 338 182 176 213 348 2 330 180 250 303 271 320 243 258 163 169 193 224 249 287 318
351 293 341 266 136 54 76 52 161 205 218 201 320 332 35 68 99 12 64 93 57 42 99 45 308 88 175 22 56 357 182 117 102 226 275 241 286 299 162 205 229 236 273 282 305
45 5 297 162 104 52 70 120 113 114 35 17 193 152 122 206 186 182 155 296 120 68 73 67 73 158 108 83 57 51 76 189 135 301 281 284 276 241 263 244 224 237 253 263 269
51 54 264 137 82 50 86 103 124 112 22 333 342 164 98 159 82 33 146 210 132 124 33 124 91 256 99 206 185 152 198 220 340 176 217 304 267 216 224 209 209 227 227 250 232
353 50 241 105 50 52 63 12 327 142 142 281 301 331 20 356 213 219 204 113 147 164 178 166 190 231 229 245 173 176 190 174 138 202 233 245 270 208 223 213 220 237 223 254 211
29 272 327 93 92 34 265 64 339 149 206 192 216 91 27 320 341 185 189 161 154 179 200 183 257 353 359 350 295 215 205 194 165 116 219 169 260 202 237 237 234 237 239 250 216
63 2 325 43 147 131 150 208 188 224 238 199 228 113 197 231 217 248 212 218 184 189 145 100 239 200 202 226 131 226 219 209 176 182 209 229 279 261 270 251 249 241 238 236 219
51 248 203 284 325 122 133 158 168 221 247 216 237 226 196 201 182 220 200 136 233 176 184 167 230 202 245 257 258 251 242 233 217 214 200 245 239 263 266 245 238 236 229 228 219
74 108 2 269 216 159 190 200 186 185 159 237 212 296 198 199 162 216 100 220 190 199 188 209 273 288 270 258 258 257 247 238 237 238 246 255 272 272 277 283 280 234 208 214 214
311 353 105 280 257 122 222 224 202 148 203 160 181 159 252 240 200 227 217 211 186 166 208 168 198 1 268 309 324 293 227 221 224 218 222 235 244 279 280 281 278 241 207 213 219